Change the Weather History Date:

Saturday, June 8, 2013

  Actual Average Record
Temperature  
Mean Temperature 56 °F -  
Max Temperature 70 °F 79 °F 93 °F (1959)
Min Temperature 43 °F 54 °F 33 °F (1998)
Degree Days  
Heating Degree Days 8    
Growing Degree Days 6 (Base 50)    
Moisture  
Dew Point 49 °F    
Average Humidity 72    
Maximum Humidity 99    
Minimum Humidity 43    
Precipitation  
Precipitation 0.00 in - - ()
Sea Level Pressure  
Sea Level Pressure 30.00 in    
Wind  
Wind Speed 1 mph (ENE)    
Max Wind Speed 8 mph    
Max Gust Speed -    
Visibility 9 miles    
Events Fog    
Averages and records for this station are not official NWS values.
T = Trace of Precipitation, MM = Missing Value Source: NWS Daily Summary

Daily Weather History Graph

Daily Weather History Graph

Search for Another Location

Airport or City:

Trip Planner

Search our weather history database for the weather conditions in past years. The results will help you decide how hot, cold, wet, or windy it might be!

Date:

Astronomy

Jun. 08, 2013 Rise Set
Actual Time 5:58 AM EDT 9:17 PM EDT
Civil Twilight 5:23 AM EDT 9:52 PM EDT
Nautical Twilight 4:37 AM EDT 10:38 PM EDT
Astronomical Twilight 3:41 AM EDT 11:35 PM EDT
Moon 6:07 AM EDT (6/8) 9:17 PM EDT (6/8)
Length of Visible Light 16h 29m
Length of Day
15h 18m
New Moon, 0% of the Moon is Illuminated
Jun 8
New Moon
Jun 16
First Quarter
Jun 23
Full
Jun 30
Last Quarter
Jul 8
New

Hourly Weather History & Observations

Time (EDT) Temp. Dew Point Humidity Pressure Visibility Wind Dir Wind Speed Gust Speed Precip Events Conditions
12:14 AM 49.5 °F 48.2 °F 95% 29.94 in 10.0 mi Calm Calm - N/A   Clear
12:33 AM 49.3 °F 48.2 °F 96% 29.94 in 10.0 mi Calm Calm - N/A   Clear
12:53 AM 49.1 °F 48.0 °F 96% 29.94 in 10.0 mi Calm Calm - N/A   Clear
1:13 AM 48.6 °F 47.7 °F 97% 29.94 in 10.0 mi Calm Calm - N/A   Clear
1:33 AM 48.0 °F 46.8 °F 95% 29.94 in 10.0 mi Calm Calm - N/A   Clear
1:53 AM 47.7 °F 46.8 °F 97% 29.94 in 10.0 mi Calm Calm - N/A   Scattered Clouds
2:13 AM 48.2 °F 47.3 °F 97% 29.94 in 3.0 mi Calm Calm - N/A   Scattered Clouds
2:33 AM 47.3 °F 46.4 °F 97% 29.94 in 0.5 mi Calm Calm - N/A Fog Fog
2:53 AM 47.1 °F 46.6 °F 98% 29.94 in 1.0 mi Calm Calm - N/A   Mist
3:13 AM 46.2 °F 45.5 °F 97% 29.94 in 0.5 mi Calm Calm - N/A Fog Fog
3:33 AM 46.6 °F 46.0 °F 98% 29.94 in 2.5 mi Calm Calm - N/A   Clear
3:53 AM 45.0 °F 44.2 °F 97% 29.94 in 10.0 mi Calm Calm - N/A   Clear
4:13 AM 45.3 °F 44.8 °F 98% 29.94 in 7.0 mi Calm Calm - N/A   Clear
4:33 AM 45.9 °F 45.5 °F 99% 29.94 in 5.0 mi Calm Calm - N/A   Clear
4:53 AM 44.6 °F 43.9 °F 97% 29.94 in 2.0 mi Calm Calm - N/A   Clear
5:13 AM 43.9 °F 43.2 °F 97% 29.94 in 5.0 mi Calm Calm - N/A   Mostly Cloudy
5:33 AM 45.3 °F 44.6 °F 97% 29.95 in 7.0 mi Calm Calm - N/A   Mostly Cloudy
5:53 AM 44.4 °F 43.9 °F 98% 29.95 in 5.0 mi Calm Calm - N/A   Scattered Clouds
6:13 AM 45.0 °F 44.6 °F 99% 29.96 in 7.0 mi Calm Calm - N/A   Clear
6:33 AM 45.0 °F 44.4 °F 98% 29.96 in 7.0 mi Calm Calm - N/A   Clear
6:53 AM 46.6 °F 46.0 °F 98% 29.97 in 7.0 mi Calm Calm - N/A   Clear
7:13 AM 49.8 °F 49.3 °F 98% 29.98 in 7.0 mi Calm Calm - N/A   Clear
7:34 AM 52.7 °F 51.6 °F 96% 29.97 in 10.0 mi Calm Calm - N/A   Clear
7:53 AM 54.9 °F 52.9 °F 93% 29.98 in 10.0 mi Calm Calm - N/A   Clear
8:14 AM 56.8 °F 53.2 °F 88% 29.98 in 10.0 mi Calm Calm - N/A   Clear
8:33 AM 58.6 °F 53.4 °F 83% 29.99 in 10.0 mi Calm Calm - N/A   Clear
8:54 AM 60.4 °F 52.2 °F 74% 29.99 in 10.0 mi Calm Calm - N/A   Clear
9:13 AM 61.2 °F 50.9 °F 69% 30.00 in 10.0 mi Calm Calm - N/A   Clear
9:34 AM 61.9 °F 50.4 °F 66% 30.01 in 10.0 mi Calm Calm - N/A   Clear
9:53 AM 63.3 °F 51.3 °F 65% 30.01 in 10.0 mi Calm Calm - N/A   Clear
10:13 AM 63.9 °F 50.7 °F 62% 30.01 in 10.0 mi SSE 3.5 mph - N/A   Clear
10:33 AM 63.9 °F 50.4 °F 61% 30.01 in 10.0 mi Calm Calm - N/A   Clear
10:54 AM 64.8 °F 51.8 °F 63% 30.00 in 10.0 mi South 3.5 mph - N/A   Clear
11:13 AM 64.9 °F 51.6 °F 62% 30.01 in 10.0 mi Calm Calm - N/A   Clear
11:33 AM 64.9 °F 50.9 °F 60% 30.01 in 10.0 mi Calm Calm - N/A   Clear
11:54 AM 65.5 °F 50.9 °F 59% 30.02 in 10.0 mi SE 3.5 mph - N/A   Clear
12:13 PM 66.4 °F 50.4 °F 56% 30.02 in 10.0 mi Calm Calm - N/A   Clear
12:33 PM 66.0 °F 51.3 °F 59% 30.01 in 10.0 mi ENE 6.9 mph - N/A   Scattered Clouds
12:53 PM 67.8 °F 50.4 °F 54% 30.01 in 10.0 mi Calm Calm - N/A   Scattered Clouds
1:13 PM 66.7 °F 49.5 °F 54% 30.01 in 10.0 mi Calm Calm - N/A   Scattered Clouds
1:33 PM 67.8 °F 51.4 °F 56% 30.01 in 10.0 mi Calm Calm - N/A   Clear
1:53 PM 68.5 °F 49.8 °F 51% 30.01 in 10.0 mi ENE 3.5 mph - N/A   Clear
2:13 PM 68.9 °F 49.6 °F 50% 30.01 in 10.0 mi SE 3.5 mph - N/A   Scattered Clouds
2:33 PM 70.0 °F 49.1 °F 47% 29.99 in 10.0 mi Calm Calm - N/A   Scattered Clouds
2:53 PM 68.2 °F 48.2 °F 49% 29.99 in 10.0 mi East 3.5 mph - N/A   Mostly Cloudy
3:13 PM 68.4 °F 48.2 °F 48% 30.00 in 10.0 mi Calm Calm - N/A   Mostly Cloudy
3:33 PM 69.8 °F 49.1 °F 48% 29.99 in 10.0 mi Calm Calm - N/A   Scattered Clouds
3:54 PM 70.2 °F 50.2 °F 49% 29.99 in 10.0 mi South 3.5 mph - N/A   Scattered Clouds
4:13 PM 69.8 °F 49.3 °F 48% 29.99 in 10.0 mi South 3.5 mph - N/A   Scattered Clouds
4:33 PM 70.2 °F 47.7 °F 45% 29.99 in 10.0 mi Calm Calm - N/A   Clear
4:54 PM 70.3 °F 48.0 °F 45% 29.99 in 10.0 mi WSW 3.5 mph - N/A   Mostly Cloudy
5:13 PM 70.5 °F 47.5 °F 44% 30.00 in 10.0 mi Calm Calm - N/A   Scattered Clouds
5:33 PM 70.9 °F 47.7 °F 44% 30.00 in 10.0 mi Calm Calm - N/A   Clear
5:53 PM 70.7 °F 47.3 °F 43% 30.01 in 10.0 mi Calm Calm - N/A   Clear
6:13 PM 70.9 °F 47.8 °F 44% 30.01 in 10.0 mi Calm Calm - N/A   Scattered Clouds
6:33 PM 70.5 °F 48.7 °F 46% 30.02 in 10.0 mi Calm Calm - N/A   Scattered Clouds
6:53 PM 70.3 °F 48.6 °F 46% 30.02 in 10.0 mi Calm Calm - N/A   Scattered Clouds
7:13 PM 69.8 °F 49.8 °F 49% 30.02 in 10.0 mi Calm Calm - N/A   Scattered Clouds
7:33 PM 69.8 °F 49.6 °F 49% 30.03 in 10.0 mi Calm Calm - N/A   Scattered Clouds
7:54 PM 69.8 °F 47.3 °F 45% 30.03 in 7.0 mi Calm Calm - N/A   Scattered Clouds
8:13 PM 68.2 °F 52.5 °F 57% 30.03 in 10.0 mi Calm Calm - N/A   Mostly Cloudy
8:34 PM 66.0 °F 52.3 °F 61% 30.03 in 10.0 mi NNE 3.5 mph - N/A   Scattered Clouds
8:53 PM 64.8 °F 51.4 °F 62% 30.04 in 10.0 mi NE 4.6 mph - N/A   Clear
9:13 PM 63.1 °F 51.8 °F 66% 30.04 in 10.0 mi North 5.8 mph - N/A   Clear
9:33 PM 62.6 °F 51.3 °F 66% 30.05 in 10.0 mi NNE 5.8 mph - N/A   Clear
9:54 PM 61.7 °F 51.8 °F 70% 30.05 in 10.0 mi NNE 5.8 mph - N/A   Clear
10:13 PM 60.4 °F 52.7 °F 76% 30.06 in 7.0 mi NE 4.6 mph - N/A   Clear
10:33 PM 59.5 °F 53.6 °F 81% 30.07 in 10.0 mi NE 5.8 mph - N/A   Clear
10:54 PM 58.1 °F 53.6 °F 85% 30.08 in 10.0 mi ENE 5.8 mph - N/A   Clear
11:14 PM 58.1 °F 53.4 °F 84% 30.08 in 10.0 mi ENE 8.1 mph - N/A   Clear
11:33 PM 57.2 °F 53.1 °F 86% 30.08 in 10.0 mi ENE 5.8 mph - N/A   Clear
11:54 PM 56.8 °F 52.9 °F 87% 30.08 in 10.0 mi ENE 5.8 mph - N/A   Clear